Location: Ashtead
(51.3000°N, 0.3000°W)
Time: 03:26:22
(UTC+00:00)

METEOR-M - Pass Details

Date: 26 September 2023
Orbit: 814 x 819 km, 98.6° (Epoch: 29 November)

Event Time Altitude Azimuth Distance (km) Brightness Sun altitude
Rises 03:36:42 0° 15° (NNE) 3,364 7.9 -21.4°
Reaches altitude 10° 03:39:04 10° 17° (NNE) 2,427 7.2 -21.1°
Maximum altitude 03:44:27 81° 105° (ESE) 836 4.2 -20.3°
Enters shadow 03:48:19 20° 192° (SSW) 1,834 5.6 -19.8°
